Farmville, VA

8:29 PM EDT on April 23, 2018 (GMT -0400)
Farmville Regional

Weather History for KFVX - March, 2013

Change the Weather History Date:

Tuesday, March 5, 2013

  Actual Average Record
Temperature  
Mean Temperature 38 °F -  
Max Temperature 50 °F 58 °F 84 °F (1961)
Min Temperature 26 °F 35 °F 12 °F (1960)
Degree Days  
Heating Degree Days 27    
Moisture  
Dew Point 25 °F    
Average Humidity 59    
Maximum Humidity 93    
Minimum Humidity 27    
Precipitation  
Precipitation 0.63 in - - ()
Sea Level Pressure  
Sea Level Pressure 29.93 in    
Wind  
Wind Speed 2 mph (East)    
Max Wind Speed 10 mph    
Max Gust Speed 20 mph    
Visibility 9 miles    
Events Rain    
Averages and records for this station are not official NWS values.
T = Trace of Precipitation, MM = Missing Value Source: NWS Daily Summary

Daily Weather History Graph

Daily Weather History Graph

Search for Another Location

Airport or City:

Astronomy

Mar. 05, 2013 Rise Set
Actual Time 6:39 AM EST 6:11 PM EST
Civil Twilight 6:12 AM EST 6:37 PM EST
Nautical Twilight 5:42 AM EST 7:08 PM EST
Astronomical Twilight 5:12 AM EST 7:38 PM EST
Moon 1:43 AM EST (3/5) 11:54 AM EST (3/5)
Length of Visible Light 12h 24m
Length of Day
11h 32m
Last Quarter, 41% of the Moon is Illuminated
Mar 5
Last Quarter
Mar 11
New
Mar 19
First Quarter
Mar 27
Full
Apr 3
Last Quarter

Hourly Weather History & Observations

Time (EST) Temp. Windchill Dew Point Humidity Pressure Visibility Wind Dir Wind Speed Gust Speed Precip Events Conditions
12:15 AM 33.8 °F - 8.6 °F 35% 30.02 in 10.0 mi Calm Calm - N/A   Clear
12:35 AM 28.4 °F - 15.8 °F 59% 30.03 in 10.0 mi Calm Calm - N/A   Clear
12:55 AM 33.8 °F - 8.6 °F 35% 30.04 in 10.0 mi Calm Calm - N/A   Clear
1:15 AM 30.2 °F - 15.8 °F 55% 30.04 in 10.0 mi Calm Calm - N/A   Clear
1:35 AM 30.2 °F - 14.0 °F 51% 30.04 in 10.0 mi Calm Calm - N/A   Clear
1:55 AM 30.2 °F - 14.0 °F 51% 30.04 in 10.0 mi Calm Calm - N/A   Clear
2:15 AM 28.4 °F - 14.0 °F 55% 30.04 in 10.0 mi Calm Calm - N/A   Clear
2:35 AM 28.4 °F - 14.0 °F 55% 30.04 in 10.0 mi Calm Calm - N/A   Clear
2:55 AM 30.2 °F - 12.2 °F 47% 30.04 in 10.0 mi Calm Calm - N/A   Clear
3:15 AM 28.4 °F - 17.6 °F 64% 30.05 in 10.0 mi Calm Calm - N/A   Scattered Clouds
3:35 AM 26.6 °F - 17.6 °F 69% 30.05 in 10.0 mi Calm Calm - N/A   Scattered Clouds
3:55 AM 28.4 °F - 19.4 °F 69% 30.05 in 10.0 mi Calm Calm - N/A   Mostly Cloudy
4:15 AM 28.4 °F - 19.4 °F 69% 30.04 in 10.0 mi Calm Calm - N/A   Overcast
4:35 AM 30.2 °F - 19.4 °F 64% 30.04 in 10.0 mi Calm Calm - N/A   Overcast
4:55 AM 30.2 °F - 21.2 °F 69% 30.05 in 10.0 mi Calm Calm - N/A   Overcast
5:15 AM 32.0 °F - 19.4 °F 60% 30.05 in 10.0 mi Calm Calm - N/A   Overcast
5:35 AM 32.0 °F - 19.4 °F 60% 30.04 in 10.0 mi Calm Calm - N/A   Overcast
5:55 AM 33.8 °F - 19.4 °F 56% 30.05 in 10.0 mi Calm Calm - N/A   Overcast
6:15 AM 32.0 °F - 21.2 °F 64% 30.04 in 10.0 mi Calm Calm - N/A   Overcast
6:35 AM 33.8 °F - 19.4 °F 56% 30.04 in 10.0 mi Calm Calm - N/A   Overcast
6:55 AM 33.8 °F - 19.4 °F 56% 30.05 in 10.0 mi Calm Calm - N/A   Mostly Cloudy
7:35 AM 35.6 °F - 23.0 °F 60% 30.06 in 10.0 mi Calm Calm - N/A   Overcast
8:15 AM 35.6 °F - 21.2 °F 56% 30.05 in 10.0 mi Calm Calm - N/A   Overcast
8:35 AM 37.4 °F - 24.8 °F 60% 30.06 in 10.0 mi Calm Calm - N/A   Overcast
8:55 AM 39.2 °F - 24.8 °F 56% 30.05 in 10.0 mi Calm Calm - N/A   Overcast
9:15 AM 39.2 °F 37.0 °F 21.2 °F 49% 30.05 in 10.0 mi South 3.5 mph - N/A Rain Light Rain
9:35 AM 39.2 °F - 21.2 °F 49% 30.04 in 10.0 mi Calm Calm - N/A   Light Drizzle
9:55 AM 41.0 °F 39.0 °F 19.4 °F 42% 30.03 in 10.0 mi SSE 3.5 mph - N/A   Overcast
10:15 AM 42.8 °F - 19.4 °F 39% 30.03 in 10.0 mi Calm Calm - N/A   Overcast
10:35 AM 42.8 °F - 17.6 °F 36% 30.02 in 10.0 mi Calm Calm - N/A   Overcast
10:55 AM 44.6 °F 43.1 °F 17.6 °F 34% 30.01 in 10.0 mi SSE 3.5 mph - N/A   Overcast
11:15 AM 46.4 °F - 15.8 °F 29% 30.00 in 10.0 mi Calm Calm - N/A   Mostly Cloudy
11:35 AM 46.4 °F - 15.8 °F 29% 30.00 in 10.0 mi Calm Calm - N/A   Overcast
11:55 AM 46.4 °F - 15.8 °F 29% 29.99 in 10.0 mi Calm Calm - N/A   Mostly Cloudy
12:15 PM 48.2 °F - 15.8 °F 27% 29.98 in 10.0 mi East 4.6 mph - N/A   Scattered Clouds
12:35 PM 48.2 °F - 17.6 °F 30% 29.97 in 10.0 mi East 5.8 mph - N/A   Clear
12:55 PM 48.2 °F - 17.6 °F 30% 29.97 in 10.0 mi East 3.5 mph - N/A   Scattered Clouds
1:15 PM 50.0 °F - 17.6 °F 28% 29.95 in 10.0 mi ESE 4.6 mph - N/A   Scattered Clouds
1:35 PM 50.0 °F - 17.6 °F 28% 29.93 in 10.0 mi East 3.5 mph - N/A   Clear
1:55 PM 50.0 °F - 17.6 °F 28% 29.93 in 10.0 mi East 4.6 mph - N/A   Mostly Cloudy
2:15 PM 50.0 °F - 17.6 °F 28% 29.92 in 10.0 mi ESE 4.6 mph - N/A   Mostly Cloudy
2:35 PM 50.0 °F - 19.4 °F 30% 29.91 in 10.0 mi Calm Calm - N/A   Overcast
2:55 PM 48.2 °F - 26.6 °F 43% 29.91 in 10.0 mi South 8.1 mph - N/A   Overcast
3:15 PM 48.2 °F - 26.6 °F 43% 29.90 in 10.0 mi SSE 6.9 mph - N/A   Overcast
3:35 PM 48.2 °F - 28.4 °F 46% 29.89 in 10.0 mi SSE 4.6 mph - N/A   Overcast
3:55 PM 48.2 °F - 28.4 °F 46% 29.89 in 10.0 mi SSE 8.1 mph - N/A   Overcast
4:15 PM 46.4 °F 43.5 °F 28.4 °F 50% 29.90 in 10.0 mi SE 5.8 mph - N/A   Overcast
4:35 PM 46.4 °F 45.2 °F 28.4 °F 50% 29.89 in 10.0 mi SE 3.5 mph - N/A   Overcast
4:55 PM 46.4 °F 45.2 °F 30.2 °F 53% 29.89 in 10.0 mi ESE 3.5 mph - N/A   Light Drizzle
5:15 PM 46.4 °F 43.5 °F 30.2 °F 53% 29.88 in 10.0 mi SE 5.8 mph - N/A   Light Drizzle
5:35 PM 44.6 °F 41.4 °F 32.0 °F 61% 29.87 in 10.0 mi ESE 5.8 mph - N/A Rain Rain
5:55 PM 44.6 °F 42.2 °F 32.0 °F 61% 29.86 in 10.0 mi SE 4.6 mph - N/A Rain Light Rain
6:15 PM 42.8 °F 41.1 °F 33.8 °F 70% 29.86 in 10.0 mi East 3.5 mph - 0.01 in Rain Light Rain
6:35 PM 42.8 °F 41.1 °F 35.6 °F 76% 29.85 in 7.0 mi ENE 3.5 mph - 0.04 in Rain Rain
6:55 PM 42.8 °F 40.1 °F 37.4 °F 81% 29.84 in 7.0 mi ENE 4.6 mph - 0.02 in Rain Rain
7:15 PM 42.8 °F 40.1 °F 37.4 °F 81% 29.84 in 7.0 mi East 4.6 mph - 0.06 in Rain Rain
7:35 PM 41.0 °F 37.1 °F 39.2 °F 93% 29.82 in 7.0 mi East 5.8 mph - 0.11 in Rain Rain
7:55 PM 41.0 °F 38.0 °F 39.2 °F 93% 29.80 in 7.0 mi ENE 4.6 mph - 0.02 in Rain Light Rain
8:15 PM 41.0 °F 38.0 °F 39.2 °F 93% 29.79 in 10.0 mi East 4.6 mph - 0.04 in Rain Light Rain
8:35 PM 41.0 °F 36.4 °F 39.2 °F 93% 29.77 in 7.0 mi East 6.9 mph - 0.06 in Rain Light Rain
8:55 PM 41.0 °F 35.2 °F 39.2 °F 93% 29.74 in 5.0 mi ENE 9.2 mph 19.6 mph N/A Rain Light Rain
9:15 PM 41.0 °F 37.1 °F 39.2 °F 93% 29.74 in 7.0 mi ENE 5.8 mph - 0.01 in   Drizzle
9:35 PM 41.0 °F 35.8 °F 39.2 °F 93% 29.74 in 4.0 mi East 8.1 mph - 0.07 in Rain Rain
9:55 PM 41.0 °F 35.8 °F 39.2 °F 93% 29.73 in 5.0 mi East 8.1 mph - 0.04 in Rain Rain
10:15 PM 41.0 °F 35.2 °F 39.2 °F 93% 29.73 in 4.0 mi East 9.2 mph - 0.13 in Rain Rain
10:35 PM 39.2 °F 32.5 °F 37.4 °F 93% 29.71 in 7.0 mi ENE 10.4 mph - 0.20 in Rain Rain
10:55 PM 39.2 °F 33.0 °F 37.4 °F 93% 29.69 in 5.0 mi ENE 9.2 mph - 0.02 in Rain Rain
11:15 PM 39.2 °F 34.2 °F 37.4 °F 93% 29.69 in 4.0 mi ENE 6.9 mph - 0.09 in Rain Rain
11:35 PM 39.2 °F 33.6 °F 37.4 °F 93% 29.68 in 5.0 mi NNE 8.1 mph 16.1 mph 0.15 in Rain Rain
11:55 PM 37.4 °F 32.8 °F 35.6 °F 93% 29.67 in 7.0 mi North 5.8 mph - 0.02 in Rain Light Rain